Regional Weather Roundup
Issued by NWS

Home | Current Version | Previous Version | Graphics & Text | Print | Product List | Glossary On
Versions: 1 2 3 4 5 6 7 8 9 10 11 12 13 14 15 16 17 18 19 20 21 22 23 24 25 26 27 28 29 30 31 32 33 34 35 36 37 38 39 40 41 42 43 44 45 46 47 48 49 50
000
ASUS43 KDMX 281208
RWRIA

WEATHER ROUNDUP FOR IOWA
NATIONAL WEATHER SERVICE DES MOINES IA
700 AM CDT SAT MAY 28 2016

NOTE: "FAIR" INDICATES FEW OR NO CLOUDS BELOW 12,000 FEET WITH NO
SIGNIFICANT WEATHER AND/OR OBSTRUCTIONS TO VISIBILITY.

* - THESE STATIONS ARE NOT NWS STATIONS...THUS NOT UNDER NWS
QUALITY CONTROL.  THEY ALSO DO NOT REPORT WEATHER SUCH
AS PRECIPITATION OR FOG.

IAZ001>003-012>014-020>022-031>034-043>046-281300-
   NORTHWEST IOWA

CITY           SKY/WX    TMP DP  RH WIND       PRES   REMARKS
CARROLL *      CLOUDY    63  63 100 SE7       29.73S
CHEROKEE *     DRIZZLE   63  63  99 CALM      29.73S
DENISON *      MOSUNNY   63  61  94 VRB7G13   29.72R
LE MARS *      LGT RAIN  63  61  94 SE7       29.73S
ORANGE CITY *  DRIZZLE   63  61  94 E5        29.73S
SHELDON *      PTSUNNY   63  63 100 E5        29.72S FOG
SIOUX CITY     CLOUDY    62  58  86 S10       29.73R
6HR MIN TEMP:  61; 6HR MAX TEMP:  64; 6HR PCP:  0.04;

SPENCER        LGT RAIN  64  62  93 CALM      29.74S FOG
6HR MIN TEMP:  63; 6HR MAX TEMP:  68; 6HR PCP:  0.08;

STORM LAKE *   PTSUNNY   63  61  94 SE5       29.75R
$$

IAZ055>058-069>071-079>083-090>094-281300-
   SOUTHWEST IOWA

CITY           SKY/WX    TMP DP  RH WIND       PRES   REMARKS
ATLANTIC *     MOSUNNY   63  61  94 S6        29.74S
AUDUBON *      MOSUNNY   61  57  88 S5        29.75R
CLARINDA *       N/A     61  61 100 MISG      29.77S
COUNCIL BLFS * CLOUDY    61  59  94 S8        29.75S
CRESTON *      CLOUDY    61  61 100 SE10G16   29.77S FOG
HARLAN  *      SUNNY     63  61  94 SW8       29.78R
LAMONI         CLOUDY    63  62  97 S9        29.77R
6HR MIN TEMP:  61; 6HR MAX TEMP:  64; 6HR PCP:  0.28;

RED OAK *      CLOUDY    61  59  94 S7        29.76R
SHENANDOAH *   CLOUDY    61  61 100 CALM      29.76R
$$

IAZ047>049-059>061-072>074-084-281300-
   CENTRAL IOWA

CITY           SKY/WX    TMP DP  RH WIND       PRES   REMARKS
AMES           CLOUDY    61  60  97 CALM      29.75S
6HR MIN TEMP:  61; 6HR MAX TEMP:  66; 6HR PCP:  0.06;

ANKENY *       SUNNY     63  63 100 CALM      29.75R
BOONE *        CLOUDY    63  61  94 SE3       29.74S
CHARITON *     CLOUDY    63  63 100 S8        29.76S
DES MOINES     PTSUNNY   62  59  90 SE6       29.75R
6HR MIN TEMP:  62; 6HR MAX TEMP:  66; 6HR PCP:  0.05;

GRINNELL*      CLOUDY    63  61  94 SE3       29.77F FOG
KNOXVILLE *    CLOUDY    63  61  94 SE6       29.75R
MARSHALLTOWN   CLOUDY    62  61  96 CALM      29.75S
6HR MIN TEMP:  60; 6HR MAX TEMP:  67; 6HR PCP:  0.01;

NEWTON *       PTSUNNY   63  63 100 S5        29.76S
PERRY *          N/A     63  63 100 NE6       29.75R
$$

IAZ004>006-015-016-023>025-035-036-281300-
   NORTH CENTRAL IOWA

CITY           SKY/WX    TMP DP  RH WIND       PRES   REMARKS
ALGONA *       CLOUDY    64  63  94 S6        29.75S
CLARION *      PTSUNNY   63  63 100 SW6       29.75S
ESTHERVILLE    CLOUDY    63  62  97 SE3       29.73F
6HR MIN TEMP:  63; 6HR MAX TEMP:  66; 6HR PCP:  0.27;

FORT DODGE *   CLOUDY    63  57  82 S5        29.77R
MASON CITY     CLOUDY    63  62  97 NW6       29.76R FOG
6HR MIN TEMP:  60; 6HR MAX TEMP:  64; 6HR PCP: TRACE;

FOREST CITY *  CLOUDY    61  61 100 CALM      29.75S FOG
WEBSTER CITY * CLOUDY    63  63 100 SW5       29.74R
IOWA FALLS *   CLOUDY    64  63  94 S10       29.77S
$$

IAZ007>011-017>019-026>030-037>042-050>054-066-281300-
   NORTHEAST IOWA

CITY           SKY/WX    TMP DP  RH WIND       PRES   REMARKS
CEDAR RAPIDS   CLOUDY    62  62 100 S8        29.77S
6HR MIN TEMP:  61; 6HR MAX TEMP:  64; 6HR PCP:  0.27;

CHARLES CITY * CLOUDY    64  64 100 SE3       29.76R FOG
CLINTON *      CLOUDY    68  65  90 SW14      29.81R
DECORAH *      FOG       66  66 100 NW3       29.73F VSB 0
DUBUQUE        CLOUDY    62  62 100 SW9       29.78R
6HR MIN TEMP:  62; 6HR MAX TEMP:  70; 6HR PCP:  0.30;

MONTICELLO *   SUNNY     64  63  94 S6        29.79R
OELWEIN *      PTSUNNY   64  64 100 S8        29.77R
WATERLOO       PTSUNNY   63  61  93 S6        29.76R
6HR MIN TEMP:  62; 6HR MAX TEMP:  67; 6HR PCP:  0.05;

$$

IAZ064-065-067-068-078-281300-
   EAST CENTRAL IOWA

CITY           SKY/WX    TMP DP  RH WIND       PRES   REMARKS
DAVENPORT      CLOUDY    67  64  90 S14G21    29.81R
6HR MIN TEMP:  67; 6HR MAX TEMP:  70; 6HR PCP:  0.03;

IOWA CITY      CLOUDY    63  62  97 SE5       29.80R
6HR MIN TEMP:  60; 6HR MAX TEMP:  66; 6HR PCP:  0.19;

MT. PLEASANT * CLOUDY    68  68 100 S6        29.80S
MUSCATINE *    CLOUDY    66  64  94 S6        29.81R
QUAD CITIES    CLOUDY    70  65  84 S9        29.80R
6HR MIN TEMP:  69; 6HR MAX TEMP:  71;

$$

IAZ062-063-075>077-085>089-095>099-281300-
   SOUTHEAST IOWA

CITY           SKY/WX    TMP DP  RH WIND       PRES   REMARKS
BURLINGTON     CLOUDY    68  67  96 S14       29.81S
6HR MIN TEMP:  66; 6HR MAX TEMP:  68; 6HR PCP:  0.03;

FAIRFIELD *      N/A    N/A N/A N/A MISG        N/A
FORT MADISON * CLOUDY    68  66  94 S9        29.82S
KEOKUK *       SUNNY     68  66  94 S10G20    29.81R
OSKALOOSA *    CLOUDY    63  62  97 SE9       29.78S
OTTUMWA        CLOUDY    64  63  96 SE10      29.77S
6HR MIN TEMP:  62; 6HR MAX TEMP:  65; 6HR PCP:  0.73;

WASHINGTON *   CLOUDY    63 N/A N/A S7        29.81R
$$

ABBREVIATIONS USED IN REMARKS
   TC - TEMPERATURES IN CELSIUS
  WCI - WIND CHILL INDEX
   HX - HEAT INDEX
  VSB - VISIBILITY
$$




USA.gov is the U.S. government's official web portal to all federal, state and local government web resources and services.